Location: Fort Worth, Tx
(32.7431°N, 97.3695°W)
Time: 11:16:57
(UTC-04:00)

A-11 Canister half - Pass Details

Date: 20 August 2024
Orbit: 1524 x 1684 km, 47.3° (Epoch: 13 September)

Event Time Altitude Azimuth Distance (km) Brightness Sun altitude
Rises 00:16:33 0° 260° (W) 4,865 12.0 -34.4°
Reaches altitude 10° 00:19:52 10° 267° (W) 3,898 11.5 -34.9°
Maximum altitude 00:29:25 47° 338° (NNW) 2,132 9.9 -36.2°
Drops below altitude 10° 00:39:07 10° 50° (NE) 3,949 11.1 -37.4°
Sets 00:42:32 0° 57° (ENE) 4,933 11.6 -37.8°
